Location: Shannon
(40.5500°S, 175.4167°E)
Time: 08:44:32
(UTC+00:00)

Cosmos 1680 Rocket - Pass Details

Date: 17 November 2025
Orbit: 756 x 776 km, 74.1° (Epoch: 14 December)

Event Time Altitude Azimuth Distance (km) Brightness Sun altitude
Exits shadow 14:28:45 47° 308° (NW) 1,024 3.7 -21.4°
Maximum altitude 14:30:07 65° 249° (WSW) 858 3.6 -21.3°
Drops below altitude 10° 14:35:27 10° 167° (SSE) 2,354 7.0 -20.6°
Sets 14:37:53 0° 163° (SSE) 3,291 8.0 -20.3°
